Погода в Цнале

Россия / Республика Дагестан     41°41′46″N   47°59′54″E
темп.,
°C
ветер,
м/с
пор.,
м/с
влажн.,
%
обл.,
%
осадки,
мм/ч
давл.,
гПа
погр.,
м
15 июня, вт
вт1500:00+15з22700 0.0 101213
03:00+15з32630 0.0 101113
06:00+18з11540 0.0 101072
09:00+22вюв32470 0.0 1008572
12:00+26всв42466 0.0 1008957
15:00+25всв42573 0.0 1008822
18:00+21св227112 0.1 1010354
21:00+17з22850 0.1 101213
16 июня, ср
ср1600:00+17з22730 0.0 101116
03:00+16з22680 0.0 101212
06:00+20з00610 0.0 101276
09:00+23в32560 0.0 1012674
12:00+26вюв43470 0.0 10111124
15:00+26в43430 0.0 1010954
18:00+23юв22570 0.0 1010265
21:00+19зюз22710 0.0 101012
17 июня, чт
чт1700:00+19з32600 0.0 100820
03:00+19з33450 0.0 100722
06:00+22з33430 0.0 100652
09:00+29в32280 0.0 1005644
12:00+31св32260 0.0 1005931
15:00+27с89450 0.0 1008935
18:00+24с56581 0.0 1012942
21:00+19зюз327724 0.3 101524
18 июня, пт
пт1800:00+19зюз227424 0.1 101518
03:00+18зюз22760 0.1 101613
06:00+21зюз11650 0.0 1015114
09:00+24в325345 0.0 10151189
12:00+25в545294 0.1 10151542
15:00+22в327064 1.7 1017808
18:00+21юв117373 0.8 1018614
21:00+17з22886 2.1 102020
19 июня, сб
сб1900:00+17з32830 0.3 102021
03:00+17з32810 0.3 102020
06:00+20з12710 0.0 102091
09:00+24св33540 0.0 10191086
12:00+26св534421 0.0 10191601
15:00+25всв434219 0.1 10191402
18:00+23в22470 0.0 1020371
21:00+18зюз22610 0.0 102113